| time (UTC) | temp F | wind direction | speed MPH | gust MPH | rain 1hr in | rain 24hr in | rain mn in | humidity % | barometer mb |
| 20260506023047 | 68 | 43 | 5.0 | 11.0 | 0.00 | 0.05 | 0.05 | 80 | 1024.4 |
| 20260506021545 | 68 | 67 | 5.0 | 15.0 | 0.00 | 0.05 | 0.05 | 83 | 1024.5 |
| 20260506020044 | 67 | 17 | 6.0 | 11.0 | 0.00 | 0.05 | 0.05 | 83 | 1024.6 |
| 20260506014542 | 68 | 26 | 5.0 | 12.0 | 0.00 | 0.05 | 0.05 | 83 | 1024.6 |
| 20260506013045 | 68 | 5 | 7.0 | 12.0 | 0.01 | 0.05 | 0.05 | 83 | 1024.8 |
| 20260506011539 | 68 | 52 | 2.0 | 11.0 | 0.01 | 0.05 | 0.05 | 85 | 1024.8 |
| 20260506010037 | 68 | 22 | 5.0 | 11.0 | 0.01 | 0.05 | 0.05 | 84 | 1024.8 |
| 20260506004603 | 68 | 28 | 5.0 | 12.0 | 0.01 | 0.05 | 0.05 | 84 | 1025.0 |
| 20260506003033 | 68 | 28 | 6.0 | 12.0 | 0.00 | 0.04 | 0.04 | 84 | 1025.1 |
| 20260506001529 | 68 | 28 | 5.0 | 11.0 | 0.00 | 0.04 | 0.04 | 82 | 1025.4 |
| 20260506000025 | 67 | 42 | 6.0 | 15.0 | 0.00 | 0.04 | 0.04 | 85 | 1025.6 |
| 20260505234548 | 66 | 49 | 5.0 | 9.0 | 0.03 | 0.04 | 0.04 | 88 | 1025.8 |
| 20260505233021 | 64 | 86 | 5.0 | 9.0 | 0.04 | 0.04 | 0.04 | 89 | 1025.8 |
| 20260505231519 | 63 | 79 | 4.0 | 10.0 | 0.04 | 0.04 | 0.04 | 90 | 1026.0 |
| 20260505230019 | 62 | 17 | 3.0 | 11.0 | 0.04 | 0.04 | 0.04 | 90 | 1026.3 |
| 20260505224527 | 63 | 21 | 6.0 | 13.0 | 0.01 | 0.01 | 0.01 | 88 | 1026.5 |
| 20260505223018 | 64 | 91 | 5.0 | 11.0 | 0.00 | 0.00 | 0.00 | 87 | 1026.4 |
| 20260505221517 | 65 | 98 | 7.0 | 11.0 | 0.00 | 0.00 | 0.00 | 85 | 1026.5 |
| 20260505220015 | 65 | 86 | 3.0 | 7.0 | 0.00 | 0.00 | 0.00 | 85 | 1026.6 |
| 20260505214516 | 64 | 32 | 2.0 | 8.0 | 0.00 | 0.00 | 0.00 | 90 | 1026.7 |
| 20260505213012 | 63 | 74 | 3.0 | 8.0 | 0.00 | 0.00 | 0.00 | 91 | 1026.8 |
| 20260505211508 | 63 | 85 | 3.0 | 8.0 | 0.00 | 0.00 | 0.00 | 91 | 1026.8 |
| 20260505210010 | 63 | 93 | 3.0 | 9.0 | 0.00 | 0.00 | 0.00 | 91 | 1026.7 |
| 20260505204506 | 63 | 101 | 4.0 | 8.0 | 0.00 | 0.00 | 0.00 | 91 | 1026.7 |
| 20260505203005 | 62 | 104 | 6.0 | 12.0 | 0.00 | 0.00 | 0.00 | 92 | 1026.6 |
| 20260505201505 | 62 | 96 | 7.0 | 9.0 | 0.00 | 0.00 | 0.00 | 92 | 1026.4 |
| 20260505200108 | 62 | 111 | 4.0 | 9.0 | 0.00 | 0.00 | 0.00 | 92 | 1026.3 |
| 20260505194502 | 62 | 102 | 0.0 | 0.0 | 0.00 | 0.00 | 0.00 | 92 | 1026.3 |
| 20260505193001 | 61 | 88 | 0.0 | 0.0 | 0.00 | 0.00 | 0.00 | 92 | 1026.3 |
| 20260505191600 | 61 | 82 | 0.0 | 0.0 | 0.00 | 0.00 | 0.00 | 92 | 1026.2 |
| 20260505190106 | 61 | 92 | 0.0 | 0.0 | 0.00 | 0.00 | 0.00 | 92 | 1026.2 |
| 20260505184559 | 60 | 85 | 0.0 | 0.0 | 0.00 | 0.00 | 0.00 | 92 | 1026.1 |
| 20260505183100 | 61 | 86 | 0.0 | 0.0 | 0.00 | 0.00 | 0.00 | 92 | 1026.0 |
| 20260505181557 | 60 | 103 | 0.0 | 0.0 | 0.00 | 0.00 | 0.00 | 92 | 1025.9 |
| 20260505174558 | 60 | 103 | 0.0 | 0.0 | 0.00 | 0.00 | 0.00 | 92 | 1025.9 |
| 20260505173055 | 60 | 105 | 0.0 | 0.0 | 0.00 | 0.00 | 0.00 | 91 | 1025.9 |
| 20260505171554 | 60 | 107 | 0.0 | 0.0 | 0.00 | 0.00 | 0.00 | 91 | 1026.0 |
| 20260505170053 | 60 | 107 | 0.0 | 0.0 | 0.00 | 0.00 | 0.00 | 91 | 1025.9 |
| 20260505164604 | 60 | 63 | 0.0 | 0.0 | 0.00 | 0.00 | 0.00 | 90 | 1026.1 |
| 20260505163051 | 61 | 63 | 0.0 | 3.0 | 0.00 | 0.00 | 0.00 | 90 | 1026.1 |
| 20260505161551 | 61 | 63 | 2.0 | 4.0 | 0.00 | 0.00 | 0.00 | 90 | 1026.1 |
| 20260505153048 | 62 | 77 | 2.0 | 4.0 | 0.00 | 0.00 | 0.00 | 90 | 1026.2 |
| 20260505151545 | 62 | 75 | 2.0 | 5.0 | 0.00 | 0.00 | 0.00 | 90 | 1026.2 |
| 20260505124528 | 62 | 69 | 2.0 | 4.0 | 0.00 | 0.01 | 0.00 | 88 | 1027.5 |
| 20260505123028 | 62 | 72 | 1.0 | 5.0 | 0.00 | 0.01 | 0.00 | 88 | 1027.6 |
| 20260505121525 | 62 | 76 | 1.0 | 4.0 | 0.00 | 0.01 | 0.00 | 88 | 1027.7 |
| 20260505120123 | 61 | 67 | 1.0 | 4.0 | 0.00 | 0.01 | 0.00 | 88 | 1027.7 |
| 20260505114523 | 61 | 78 | 3.0 | 7.0 | 0.00 | 0.01 | 0.01 | 89 | 1027.6 |
| 20260505113027 | 61 | 78 | 3.0 | 5.0 | 0.00 | 0.01 | 0.01 | 90 | 1027.6 |
| 20260505111521 | 61 | 49 | 4.0 | 8.0 | 0.00 | 0.01 | 0.01 | 90 | 1027.7 |
| 20260505101545 | 62 | 80 | 4.0 | 11.0 | 0.00 | 0.01 | 0.01 | 89 | 1028.2 |
| 20260505100046 | 62 | 72 | 4.0 | 9.0 | 0.00 | 0.01 | 0.01 | 89 | 1028.2 |
| 20260505094543 | 61 | 85 | 4.0 | 7.0 | 0.00 | 0.01 | 0.01 | 89 | 1028.1 |
| 20260505093042 | 61 | 80 | 3.0 | 6.0 | 0.00 | 0.01 | 0.01 | 89 | 1028.2 |
| 20260505091542 | 60 | 80 | 1.0 | 5.0 | 0.00 | 0.01 | 0.01 | 89 | 1028.1 |
| 20260505090042 | 60 | 96 | 2.0 | 8.0 | 0.00 | 0.01 | 0.01 | 89 | 1028.0 |
| 20260505084546 | 60 | 97 | 4.0 | 8.0 | 0.00 | 0.01 | 0.01 | 89 | 1027.9 |
| 20260505083040 | 60 | 90 | 3.0 | 8.0 | 0.00 | 0.01 | 0.01 | 89 | 1028.0 |
| 20260505081539 | 60 | 88 | 7.0 | 10.0 | 0.00 | 0.01 | 0.01 | 89 | 1027.9 |
| 20260505080038 | 60 | 90 | 7.0 | 10.0 | 0.00 | 0.01 | 0.01 | 89 | 1027.9 |
| 20260505074538 | 60 | 92 | 7.0 | 12.0 | 0.00 | 0.01 | 0.01 | 88 | 1027.8 |
| 20260505073043 | 60 | 82 | 7.0 | 12.0 | 0.00 | 0.01 | 0.01 | 88 | 1027.8 |
| 20260505071536 | 61 | 66 | 5.0 | 12.0 | 0.00 | 0.01 | 0.01 | 87 | 1027.7 |
| 20260505070043 | 61 | 82 | 8.0 | 13.0 | 0.00 | 0.01 | 0.01 | 87 | 1027.7 |
| 20260505064535 | 61 | 97 | 7.0 | 11.0 | 0.00 | 0.01 | 0.01 | 87 | 1027.7 |
| 20260505063034 | 60 | 92 | 6.0 | 11.0 | 0.00 | 0.01 | 0.01 | 88 | 1027.7 |
| 20260505061540 | 60 | 98 | 4.0 | 9.0 | 0.00 | 0.01 | 0.01 | 88 | 1027.8 |
| 20260505060032 | 60 | 107 | 6.0 | 10.0 | 0.00 | 0.01 | 0.01 | 88 | 1027.7 |
| 20260505054537 | 61 | 104 | 5.0 | 9.0 | 0.00 | 0.01 | 0.01 | 88 | 1027.6 |
| 20260505053033 | 61 | 104 | 7.0 | 11.0 | 0.00 | 0.01 | 0.01 | 88 | 1027.6 |
| 20260505051531 | 61 | 94 | 5.0 | 10.0 | 0.00 | 0.01 | 0.01 | 87 | 1027.6 |
| 20260505050129 | 62 | 98 | 7.0 | 12.0 | 0.00 | 0.01 | 0.01 | 87 | 1027.8 |
| 20260505041540 | 62 | 85 | 6.0 | 14.0 | 0.00 | 0.01 | 0.01 | 86 | 1027.7 |
| 20260505040036 | 62 | 80 | 7.0 | 14.0 | 0.00 | 0.01 | 0.01 | 86 | 1027.8 |
| 20260505034528 | 63 | 102 | 7.0 | 14.0 | 0.00 | 0.01 | 0.01 | 86 | 1027.8 |
| 20260505033024 | 62 | 115 | 9.0 | 14.0 | 0.00 | 0.01 | 0.01 | 87 | 1027.7 |
| 20260505031535 | 62 | 111 | 8.0 | 14.0 | 0.00 | 0.01 | 0.01 | 87 | 1027.7 |
| 20260505030022 | 63 | 109 | 10.0 | 15.0 | 0.00 | 0.01 | 0.01 | 85 | 1027.8 |
| 20260505024521 | 63 | 96 | 7.0 | 12.0 | 0.00 | 0.01 | 0.01 | 86 | 1027.8 |